• In Portugal
  • List of Countries
  • For 7 days
  • Water Temperature
  • Satellite Maps
  • Weather Map
  • Weather Widgets
  • user-avatar
    Login

    Hourly Weather Otok

    Today, 24 September, Monday

    Time Temperature Precipitation Wind Pressure Humidity
    00:00 +8°C° 0.9 mm 7 mps 739 mmHg 90%
    01:00 +7°C° 0 mm 6 mps 741 mmHg 87%
    02:00 +6°C° 0.1 mm 7 mps 742 mmHg 87%
    03:00 +6°C° 0.1 mm 7 mps 743 mmHg 86%
    04:00 +6°C° 0.1 mm 7 mps 744 mmHg 86%
    05:00 +6°C° 0 mm 7 mps 744 mmHg 85%
    06:00 +6°C° 0 mm 8 mps 745 mmHg 85%
    07:00 +6°C° 0 mm 8 mps 746 mmHg 84%
    08:00 +6°C° 0.1 mm 8 mps 746 mmHg 80%
    09:00 +7°C° 0.1 mm 8 mps 747 mmHg 77%
    10:00 +7°C° 0.1 mm 8 mps 748 mmHg 73%
    11:00 +9°C° 0.3 mm 8 mps 748 mmHg 69%
    12:00 +10°C° 0.3 mm 8 mps 748 mmHg 64%
    13:00 +10°C° 0.3 mm 9 mps 749 mmHg 59%
    14:00 +10°C° 0.2 mm 8 mps 749 mmHg 58%
    15:00 +10°C° 0.2 mm 8 mps 749 mmHg 57%
    16:00 +10°C° 0.2 mm 7 mps 749 mmHg 56%
    17:00 +9°C° 0.1 mm 6 mps 750 mmHg 61%
    18:00 +8°C° 0.1 mm 5 mps 751 mmHg 66%
    19:00 +7°C° 0.1 mm 5 mps 751 mmHg 71%
    20:00 +6°C° 0.1 mm 4 mps 752 mmHg 73%
    21:00 +6°C° 0.1 mm 4 mps 752 mmHg 75%
    22:00 +6°C° 0.1 mm 4 mps 753 mmHg 77%
    23:00 +5°C° 0 mm 4 mps 753 mmHg 78%

    Tomorrow, 25 September, Tuesday

    Time Temperature Precipitation Wind Pressure Humidity
    00:00 +5°C° 0 mm 4 mps 753 mmHg 79%
    01:00 +4°C° 0 mm 4 mps 754 mmHg 81%
    02:00 +4°C° 0 mm 4 mps 754 mmHg 82%
    03:00 +4°C° 0 mm 4 mps 755 mmHg 82%
    04:00 +4°C° 0 mm 4 mps 755 mmHg 83%
    05:00 +4°C° 0 mm 4 mps 756 mmHg 83%
    06:00 +4°C° 0 mm 4 mps 756 mmHg 83%
    07:00 +4°C° 0 mm 4 mps 757 mmHg 83%
    08:00 +6°C° 0 mm 4 mps 757 mmHg 76%
    09:00 +7°C° 0 mm 4 mps 758 mmHg 70%
    10:00 +10°C° 0 mm 4 mps 758 mmHg 64%
    11:00 +11°C° 0.1 mm 4 mps 758 mmHg 59%
    12:00 +12°C° 0.1 mm 4 mps 758 mmHg 54%
    13:00 +13°C° 0.1 mm 3 mps 758 mmHg 49%
    14:00 +12°C° 0 mm 3 mps 758 mmHg 49%
    15:00 +12°C° 0 mm 3 mps 758 mmHg 49%
    16:00 +12°C° 0 mm 3 mps 758 mmHg 49%
    17:00 +12°C° 0 mm 2 mps 759 mmHg 55%
    18:00 +9°C° 0 mm 2 mps 759 mmHg 61%
    19:00 +9°C° 0 mm 1 mps 759 mmHg 66%
    20:00 +8°C° 0 mm 1 mps 759 mmHg 68%
    21:00 +8°C° 0 mm 1 mps 760 mmHg 69%
    22:00 +7°C° 0 mm 1 mps 760 mmHg 70%
    23:00 +6°C° 0 mm 2 mps 760 mmHg 70%

    Day after tomorrow, 26 September, Wednesday

    Time Temperature Precipitation Wind Pressure Humidity
    00:00 +6°C° 0 mm 2 mps 760 mmHg 71%
    01:00 +5°C° 0 mm 2 mps 760 mmHg 72%
    02:00 +5°C° 0 mm 2 mps 759 mmHg 72%
    03:00 +5°C° 0 mm 2 mps 759 mmHg 72%
    04:00 +5°C° 0 mm 2 mps 759 mmHg 73%
    05:00 +5°C° 0 mm 2 mps 759 mmHg 72%
    06:00 +5°C° 0 mm 2 mps 759 mmHg 71%
    07:00 +6°C° 0 mm 2 mps 759 mmHg 70%
    08:00 +8°C° 0 mm 3 mps 759 mmHg 63%
    09:00 +10°C° 0 mm 3 mps 758 mmHg 55%
    10:00 +12°C° 0 mm 4 mps 758 mmHg 47%
    11:00 +13°C° 0 mm 4 mps 758 mmHg 44%
    12:00 +14°C° 0 mm 4 mps 757 mmHg 42%
    13:00 +15°C° 0 mm 4 mps 757 mmHg 39%
    14:00 +15°C° 0 mm 4 mps 756 mmHg 41%
    15:00 +15°C° 0 mm 4 mps 756 mmHg 42%
    16:00 +16°C° 0 mm 3 mps 755 mmHg 43%
    17:00 +13°C° 0 mm 3 mps 755 mmHg 47%
    18:00 +12°C° 0 mm 3 mps 755 mmHg 51%
    19:00 +11°C° 0 mm 3 mps 755 mmHg 55%
    20:00 +10°C° 0 mm 3 mps 755 mmHg 54%
    21:00 +10°C° 0 mm 3 mps 755 mmHg 54%
    22:00 +10°C° 0 mm 3 mps 755 mmHg 53%
    23:00 +10°C° 0 mm 4 mps 755 mmHg 53%

    27 September, Thursday

    Time Temperature Precipitation Wind Pressure Humidity
    00:00 +10°C° 0 mm 4 mps 755 mmHg 54%
    01:00 +10°C° 0 mm 4 mps 754 mmHg 55%
    02:00 +10°C° 0 mm 4 mps 754 mmHg 55%
    03:00 +10°C° 0 mm 4 mps 754 mmHg 55%
    04:00 +11°C° 0 mm 4 mps 754 mmHg 55%
    05:00 +11°C° 0 mm 4 mps 754 mmHg 56%
    06:00 +11°C° 0 mm 4 mps 754 mmHg 56%
    07:00 +11°C° 0 mm 4 mps 754 mmHg 57%
    08:00 +13°C° 0 mm 4 mps 754 mmHg 56%
    09:00 +15°C° 0 mm 4 mps 754 mmHg 55%
    10:00 +17°C° 0 mm 5 mps 754 mmHg 53%
    11:00 +19°C° 0 mm 5 mps 754 mmHg 54%
    12:00 +20°C° 0 mm 5 mps 753 mmHg 54%
    13:00 +21°C° 0 mm 5 mps 753 mmHg 54%
    14:00 +21°C° 0 mm 4 mps 753 mmHg 56%
    15:00 +21°C° 0 mm 4 mps 752 mmHg 57%
    16:00 +21°C° 0 mm 4 mps 752 mmHg 59%
    17:00 +20°C° 0 mm 3 mps 752 mmHg 66%
    18:00 +18°C° 0 mm 3 mps 752 mmHg 73%
    19:00 +16°C° 0 mm 2 mps 751 mmHg 80%
    20:00 +16°C° 0 mm 2 mps 751 mmHg 80%
    21:00 +15°C° 0 mm 2 mps 751 mmHg 81%
    22:00 +15°C° 0 mm 2 mps 751 mmHg 82%
    23:00 +15°C° 0 mm 2 mps 750 mmHg 81%

    28 September, Friday

    Time Temperature Precipitation Wind Pressure Humidity
    00:00 +15°C° 0 mm 2 mps 750 mmHg 79%
    01:00 +15°C° 0 mm 2 mps 749 mmHg 78%
    02:00 +14°C° 0 mm 2 mps 749 mmHg 77%
    03:00 +13°C° 0 mm 3 mps 748 mmHg 77%
    04:00 +13°C° 0 mm 3 mps 748 mmHg 76%
    05:00 +13°C° 0 mm 3 mps 747 mmHg 74%
    06:00 +13°C° 0 mm 3 mps 747 mmHg 72%
    07:00 +13°C° 0 mm 3 mps 747 mmHg 71%
    08:00 +16°C° 0 mm 3 mps 747 mmHg 63%
    09:00 +17°C° 0 mm 4 mps 746 mmHg 55%
    10:00 +19°C° 0 mm 4 mps 746 mmHg 47%
    11:00 +20°C° 0 mm 4 mps 746 mmHg 45%
    12:00 +20°C° 0 mm 4 mps 746 mmHg 43%
    13:00 +21°C° 0 mm 4 mps 746 mmHg 42%
    14:00 +20°C° 0 mm 4 mps 746 mmHg 44%
    15:00 +20°C° 0 mm 4 mps 745 mmHg 47%
    16:00 +19°C° 0 mm 4 mps 745 mmHg 50%
    17:00 +18°C° 0 mm 4 mps 746 mmHg 58%
    18:00 +15°C° 0 mm 4 mps 746 mmHg 66%
    19:00 +13°C° 0 mm 4 mps 747 mmHg 74%
    20:00 +13°C° 0 mm 4 mps 747 mmHg 71%
    21:00 +12°C° 0 mm 4 mps 748 mmHg 69%
    22:00 +12°C° 0 mm 4 mps 748 mmHg 66%
    23:00 +11°C° 0 mm 3 mps 748 mmHg 68%

    29 September, Saturday

    Time Temperature Precipitation Wind Pressure Humidity
    00:00 +9°C° 0 mm 3 mps 748 mmHg 70%
    01:00 +8°C° 0 mm 3 mps 749 mmHg 72%
    02:00 +8°C° 0 mm 3 mps 749 mmHg 75%
    03:00 +7°C° 0 mm 3 mps 749 mmHg 78%
    04:00 +7°C° 0 mm 3 mps 750 mmHg 81%
    05:00 +7°C° 0 mm 3 mps 750 mmHg 81%
    06:00 +7°C° 0 mm 3 mps 751 mmHg 82%
    07:00 +7°C° 0 mm 3 mps 751 mmHg 82%
    08:00 +9°C° 0 mm 3 mps 752 mmHg 75%
    09:00 +10°C° 0 mm 3 mps 752 mmHg 68%
    10:00 +12°C° 0 mm 3 mps 752 mmHg 62%
    11:00 +13°C° 0 mm 3 mps 752 mmHg 57%
    12:00 +14°C° 0 mm 3 mps 752 mmHg 53%
    13:00 +14°C° 0 mm 3 mps 752 mmHg 48%
    14:00 +14°C° 0 mm 3 mps 752 mmHg 49%
    15:00 +14°C° 0 mm 3 mps 752 mmHg 49%
    16:00 +14°C° 0 mm 3 mps 752 mmHg 49%
    17:00 +12°C° 0 mm 3 mps 753 mmHg 55%
    18:00 +12°C° 0 mm 2 mps 753 mmHg 60%
    19:00 +9°C° 0 mm 2 mps 753 mmHg 66%
    20:00 +8°C° 0 mm 2 mps 753 mmHg 68%
    21:00 +8°C° 0 mm 2 mps 754 mmHg 69%
    22:00 +7°C° 0 mm 2 mps 754 mmHg 71%
    23:00 +7°C° 0 mm 2 mps 754 mmHg 71%
    Show more